![]() |
EMODnet Physics ERDDAP
Easier access to scientific data |
log in|
Brought to you by EMODnet Physics |
| Dataset Title: | NDBC - Collection of dew point temperature (DEWT) TimeSeries - IN SITU MultiPointTimeSeriesObservation
|
| Institution: | NDBC (Dataset ID: TS_DEWT_NDBC) |
| Information: | Summary
| License
| FGDC
| ISO 19115
| Metadata
| Background
| Subset
| Data Access Form
| Make a graph
|
| Name | Last modified | Size | Description | |
|---|---|---|---|---|
| Parent Directory | - | - | ||
| 44066_TS_DEWT_012010.nc | 02-Jan-2025 01:07 | 1625475 | ||
| 44066_TS_DEWT_012012.nc | 02-Jan-2025 01:09 | 1626662 | ||
| 44066_TS_DEWT_012014.nc | 19-Jan-2026 11:49 | 1626413 | ||
| 44066_TS_DEWT_012015.nc | 19-Jan-2026 11:57 | 1626937 | ||
| 44066_TS_DEWT_012016.nc | 19-Jan-2026 11:59 | 1470813 | ||
| 44066_TS_DEWT_012018.nc | 19-Jan-2026 12:11 | 1476951 | ||
| 44066_TS_DEWT_012020.nc | 19-Jan-2026 12:27 | 1476500 | ||
| 44066_TS_DEWT_012022.nc | 19-Jan-2026 12:42 | 1473839 | ||
| 44066_TS_DEWT_012023.nc | 19-Jan-2026 12:54 | 1471848 | ||
| 44066_TS_DEWT_022010.nc | 02-Jan-2025 01:07 | 1477006 | ||
| 44066_TS_DEWT_022012.nc | 02-Jan-2025 01:09 | 1477027 | ||
| 44066_TS_DEWT_022013.nc | 19-Jan-2026 11:40 | 1476989 | ||
| 44066_TS_DEWT_022014.nc | 19-Jan-2026 11:50 | 1626547 | ||
| 44066_TS_DEWT_022016.nc | 19-Jan-2026 11:59 | 1626840 | ||
| 44066_TS_DEWT_022017.nc | 19-Jan-2026 12:04 | 1475654 | ||
| 44066_TS_DEWT_022018.nc | 19-Jan-2026 12:11 | 1477797 | ||
| 44066_TS_DEWT_022020.nc | 19-Jan-2026 12:28 | 1626873 | ||
| 44066_TS_DEWT_022022.nc | 19-Jan-2026 12:43 | 1626156 | ||
| 44066_TS_DEWT_022023.nc | 19-Jan-2026 12:55 | 1474873 | ||
| 44066_TS_DEWT_032010.nc | 02-Jan-2025 01:07 | 1626932 | ||
| 44066_TS_DEWT_032013.nc | 19-Jan-2026 11:41 | 1476524 | ||
| 44066_TS_DEWT_032014.nc | 19-Jan-2026 11:51 | 1627515 | ||
| 44066_TS_DEWT_032016.nc | 19-Jan-2026 12:00 | 1626614 | ||
| 44066_TS_DEWT_032017.nc | 19-Jan-2026 12:05 | 1627232 | ||
| 44066_TS_DEWT_032018.nc | 19-Jan-2026 12:12 | 1626832 | ||
| 44066_TS_DEWT_032020.nc | 19-Jan-2026 12:28 | 1625539 | ||
| 44066_TS_DEWT_032022.nc | 19-Jan-2026 12:44 | 1627253 | ||
| 44066_TS_DEWT_032023.nc | 19-Jan-2026 12:56 | 1627161 | ||
| 44066_TS_DEWT_042013.nc | 19-Jan-2026 11:42 | 1461740 | ||
| 44066_TS_DEWT_042014.nc | 19-Jan-2026 11:52 | 1627465 | ||
| 44066_TS_DEWT_042016.nc | 19-Jan-2026 12:00 | 1627022 | ||
| 44066_TS_DEWT_042017.nc | 19-Jan-2026 12:06 | 1627807 | ||
| 44066_TS_DEWT_042018.nc | 19-Jan-2026 12:13 | 1627818 | ||
| 44066_TS_DEWT_042023.nc | 19-Jan-2026 12:58 | 1154102 | ||
| 44066_TS_DEWT_052013.nc | 19-Jan-2026 11:43 | 1470599 | ||
| 44066_TS_DEWT_052014.nc | 19-Jan-2026 11:52 | 1474404 | ||
| 44066_TS_DEWT_052016.nc | 19-Jan-2026 12:00 | 1470820 | ||
| 44066_TS_DEWT_052017.nc | 19-Jan-2026 12:06 | 1470655 | ||
| 44066_TS_DEWT_052018.nc | 19-Jan-2026 12:13 | 1470247 | ||
| 44066_TS_DEWT_052019.nc | 19-Jan-2026 12:18 | 1473323 | ||
| 44066_TS_DEWT_052023.nc | 19-Jan-2026 12:59 | 1470253 | ||
| 44066_TS_DEWT_062009.nc | 02-Jan-2025 01:06 | 1470805 | ||
| 44066_TS_DEWT_062013.nc | 19-Jan-2026 11:44 | 1466171 | ||
| 44066_TS_DEWT_062014.nc | 19-Jan-2026 11:53 | 1474003 | ||
| 44066_TS_DEWT_062016.nc | 19-Jan-2026 12:01 | 1470581 | ||
| 44066_TS_DEWT_062017.nc | 19-Jan-2026 12:07 | 1470794 | ||
| 44066_TS_DEWT_062018.nc | 19-Jan-2026 12:14 | 1470340 | ||
| 44066_TS_DEWT_062019.nc | 19-Jan-2026 12:19 | 420896 | ||
| 44066_TS_DEWT_062021.nc | 19-Jan-2026 12:34 | 1625156 | ||
| 44066_TS_DEWT_062022.nc | 19-Jan-2026 12:46 | 1475306 | ||
| 44066_TS_DEWT_062023.nc | 19-Jan-2026 13:00 | 1627473 | ||
| 44066_TS_DEWT_072013.nc | 19-Jan-2026 11:44 | 1627630 | ||
| 44066_TS_DEWT_072014.nc | 19-Jan-2026 11:53 | 1476955 | ||
| 44066_TS_DEWT_072017.nc | 19-Jan-2026 12:07 | 1625962 | ||
| 44066_TS_DEWT_072018.nc | 19-Jan-2026 12:14 | 1627181 | ||
| 44066_TS_DEWT_072019.nc | 19-Jan-2026 12:20 | 1627748 | ||
| 44066_TS_DEWT_072021.nc | 19-Jan-2026 12:34 | 1477081 | ||
| 44066_TS_DEWT_072022.nc | 19-Jan-2026 12:47 | 1627499 | ||
| 44066_TS_DEWT_072023.nc | 19-Jan-2026 13:01 | 1160166 | ||
| 44066_TS_DEWT_082009.nc | 02-Jan-2025 01:06 | 1627557 | ||
| 44066_TS_DEWT_082013.nc | 19-Jan-2026 11:45 | 1627836 | ||
| 44066_TS_DEWT_082014.nc | 19-Jan-2026 11:54 | 1477829 | ||
| 44066_TS_DEWT_082017.nc | 19-Jan-2026 12:08 | 1477901 | ||
| 44066_TS_DEWT_082019.nc | 19-Jan-2026 12:22 | 1477931 | ||
| 44066_TS_DEWT_082021.nc | 19-Jan-2026 12:36 | 1477913 | ||
| 44066_TS_DEWT_082022.nc | 19-Jan-2026 12:49 | 1474390 | ||
| 44066_TS_DEWT_082023.nc | 19-Jan-2026 13:02 | 1476857 | ||
| 44066_TS_DEWT_092009.nc | 02-Jan-2025 01:06 | 1476566 | ||
| 44066_TS_DEWT_092013.nc | 19-Jan-2026 11:47 | 1477671 | ||
| 44066_TS_DEWT_092014.nc | 19-Jan-2026 11:54 | 1477918 | ||
| 44066_TS_DEWT_092017.nc | 19-Jan-2026 12:09 | 1477800 | ||
| 44066_TS_DEWT_092019.nc | 19-Jan-2026 12:23 | 1477751 | ||
| 44066_TS_DEWT_092021.nc | 19-Jan-2026 12:37 | 1477853 | ||
| 44066_TS_DEWT_092022.nc | 19-Jan-2026 12:50 | 1477201 | ||
| 44066_TS_DEWT_102009.nc | 02-Jan-2025 01:06 | 1627642 | ||
| 44066_TS_DEWT_102013.nc | 19-Jan-2026 11:48 | 1627828 | ||
| 44066_TS_DEWT_102014.nc | 19-Jan-2026 11:55 | 1627097 | ||
| 44066_TS_DEWT_102017.nc | 19-Jan-2026 12:09 | 1627689 | ||
| 44066_TS_DEWT_102019.nc | 19-Jan-2026 12:24 | 1469901 | ||
| 44066_TS_DEWT_102021.nc | 19-Jan-2026 12:38 | 1472812 | ||
| 44066_TS_DEWT_102022.nc | 19-Jan-2026 12:51 | 1627557 | ||
| 44066_TS_DEWT_112009.nc | 02-Jan-2025 01:06 | 1626988 | ||
| 44066_TS_DEWT_112011.nc | 02-Jan-2025 01:08 | 1461657 | ||
| 44066_TS_DEWT_112013.nc | 19-Jan-2026 11:48 | 1627770 | ||
| 44066_TS_DEWT_112014.nc | 19-Jan-2026 11:56 | 1468779 | ||
| 44066_TS_DEWT_112015.nc | 19-Jan-2026 11:57 | 1477974 | ||
| 44066_TS_DEWT_112017.nc | 19-Jan-2026 12:10 | 1464414 | ||
| 44066_TS_DEWT_112019.nc | 19-Jan-2026 12:25 | 1476700 | ||
| 44066_TS_DEWT_112021.nc | 19-Jan-2026 12:39 | 1477876 | ||
| 44066_TS_DEWT_112022.nc | 19-Jan-2026 12:52 | 1461521 | ||
| 44066_TS_DEWT_122009.nc | 02-Jan-2025 01:06 | 1470435 | ||
| 44066_TS_DEWT_122011.nc | 02-Jan-2025 01:08 | 1477281 | ||
| 44066_TS_DEWT_122013.nc | 19-Jan-2026 11:49 | 1477276 | ||
| 44066_TS_DEWT_122014.nc | 19-Jan-2026 11:56 | 1470108 | ||
| 44066_TS_DEWT_122015.nc | 19-Jan-2026 11:58 | 1477619 | ||
| 44066_TS_DEWT_122017.nc | 19-Jan-2026 12:10 | 1477234 | ||
| 44066_TS_DEWT_122019.nc | 19-Jan-2026 12:26 | 1477838 | ||
| 44066_TS_DEWT_122021.nc | 19-Jan-2026 12:41 | 1477693 | ||
| 44066_TS_DEWT_122022.nc | 19-Jan-2026 12:53 | 1473829 | ||